User: anonymous
Location: Unspecified
(0.0000°N, 0.0000°E)
Time: 10:45:09
(UTC+02:00)
Language:

ARIANE 5 R/B - Orbit

View from above orbital plane
View from above orbital plane
View from above satellite
View from above satellite

Ground track
Ground track

The orbit data is extracted from the following two-line orbital elements,

1 28886U 05041C   14104.09953005 -.00000079  00000-0  91350-3 0  5267
2 28886 007.8737 079.6996 7196570 319.1870 228.0694 02.24308409 69688
Epoch (UTC): 14 April 2014 02:23:19
Eccentricity: 0.7196570
inclination: 7.8737°
perigee height: 532 km
apogee height: 36013 km
right ascension of ascending node: 79.6996°
argument of perigee: 319.1870°
revolutions per day: 2.24308409
mean anomaly at epoch: 228.0694°
orbit number at epoch: 6968

The dashed part of the orbit path shows where the satellite is in the earth's shadow,  

DLR